sat.trackr.live / text

‹ back to catalog

STARLINK-32387

NORAD 61704 · 2024-195T

PAYLOAD ACTIVE UNKNOWN

§ Identity

Operator
Country
US
Launch date
2024-10-30
Launch site
AFWTR
Launch vehicle
Mass (kg)
RCS (m²)

Purposes: comms

External: N2YO · Heavens-Above · Gunter

§ Orbital elements

Epoch: 2026-05-25T01:39:37.183104Z

Period
93.85 min
Inclination
53.1601°
Eccentricity
0.0001158
Mean motion
15.34394551 rev/d
Perigee alt
461.9 km
Apogee alt
463.5 km
Semi-major
6,840.9 km
B*
1.2174e-4
RAAN
159.2983°
Arg perigee
85.2777°
Mean anomaly
274.8358°
Rev number
8,889

§ Raw data

STARLINK-323871 61704U 24195T   26145.06918036  .00003739  00000+0  12174-3 0  99992 61704  53.1601 159.2983 0001158  85.2777 274.8358 15.34394551 88894

JSON: /api/v1/satellites/61704 · /tle

For live sub-satellite position, see the globe view (requires WebGL).

§ Visibility from observer

Set your observer location to see the next 7 days of passes ≥ 10°. The values pass through the URL so the page stays shareable.

No JS? Fill the form by hand. The geolocation button needs JavaScript.